Ontario, CA

11:39 PM PDT on June 22, 2018 (GMT -0700)
Ontario International

Weather History for KONT - October, 2017

Change the Weather History Date:

Saturday, October 7, 2017

  Actual Average Record
Temperature  
Mean Temperature 78 °F 70 °F  
Max Temperature 97 °F 83 °F 98 °F (2008)
Min Temperature 58 °F 58 °F 48 °F (2011)
Degree Days  
Heating Degree Days 0 1  
Month to date heating degree days 0 2  
Since 1 July heating degree days 1 5  
Cooling Degree Days 13 6  
Month to date cooling degree days 51 45  
Year to date cooling degree days 2029 1596  
Growing Degree Days 28 (Base 50)    
Moisture  
Dew Point 30 °F    
Average Humidity 21    
Maximum Humidity 36    
Minimum Humidity 5    
Precipitation  
Precipitation 0.00 in 0.02 in 0.09 in (1974)
Month to date precipitation 0.00 0.06  
Year to date precipitation 10.85 10.93  
Sea Level Pressure  
Sea Level Pressure 29.77 in    
Wind  
Wind Speed 5 mph (WNW)    
Max Wind Speed 14 mph    
Max Gust Speed 19 mph    
Visibility 10 miles    
Events      
T = Trace of Precipitation, MM = Missing Value Source: NWS Daily Summary

Daily Weather History Graph

Daily Weather History Graph

Search for Another Location

Airport or City:

Astronomy

Oct. 07, 2017 Rise Set
Actual Time 6:49 AM PDT 6:26 PM PDT
Civil Twilight 6:24 AM PDT 6:51 PM PDT
Nautical Twilight 5:55 AM PDT 7:20 PM PDT
Astronomical Twilight 5:26 AM PDT 7:49 PM PDT
Moon 8:12 PM PDT (10/7) 8:45 AM PDT (10/7)
Length of Visible Light 12h 26m
Length of Day
11h 36m
Waning Gibbous, 95% of the Moon is Illuminated
Oct 7
Waning Gibbous
Oct 12
Last Quarter
Oct 19
New
Oct 27
First Quarter
Nov 3
Full

Hourly Weather History & Observations

Time (PDT) Temp. Dew Point Humidity Pressure Visibility Wind Dir Wind Speed Gust Speed Precip Events Conditions
12:53 AM 71.1 °F 33.1 °F 25% 29.83 in 10.0 mi North 5.8 mph - N/A   Clear
1:53 AM 66.9 °F 34.0 °F 30% 29.83 in 10.0 mi North 4.6 mph - N/A   Clear
2:53 AM 66.0 °F 34.0 °F 30% 29.82 in 10.0 mi North 6.9 mph - N/A   Clear
3:53 AM 66.0 °F 33.1 °F 29% 29.80 in 10.0 mi Calm Calm - N/A   Clear
4:53 AM 63.0 °F 33.1 °F 33% 29.80 in 10.0 mi North 4.6 mph - N/A   Clear
5:53 AM 63.0 °F 33.1 °F 33% 29.81 in 10.0 mi North 5.8 mph - N/A   Clear
6:53 AM 59.0 °F 32.0 °F 36% 29.82 in 10.0 mi NNW 3.5 mph - N/A   Scattered Clouds
7:53 AM 66.0 °F 33.1 °F 29% 29.82 in 10.0 mi NE 3.5 mph - N/A   Scattered Clouds
8:53 AM 77.0 °F 28.0 °F 17% 29.82 in 10.0 mi Calm Calm - N/A   Scattered Clouds
9:53 AM 82.0 °F 21.9 °F 11% 29.82 in 10.0 mi East 4.6 mph - N/A   Scattered Clouds
10:53 AM 86.0 °F 19.9 °F 9% 29.82 in 10.0 mi SW 3.5 mph - N/A   Scattered Clouds
11:53 AM 89.1 °F 18.0 °F 7% 29.79 in 10.0 mi Calm Calm - N/A   Partly Cloudy
12:53 PM 93.0 °F 14.0 °F 5% 29.76 in 10.0 mi West 9.2 mph - N/A   Partly Cloudy
1:53 PM 96.1 °F 15.1 °F 5% 29.73 in 10.0 mi WSW 6.9 mph - N/A   Partly Cloudy
2:53 PM 96.1 °F 21.0 °F 7% 29.71 in 10.0 mi West 11.5 mph - N/A   Clear
3:53 PM 95.0 °F 21.0 °F 7% 29.70 in 10.0 mi West 8.1 mph - N/A   Clear
4:53 PM 93.0 °F 32.0 °F 12% 29.70 in 10.0 mi West 13.8 mph - N/A   Clear
5:53 PM 89.1 °F 36.0 °F 15% 29.70 in 10.0 mi WSW 10.4 mph - N/A   Clear
6:53 PM 84.0 °F 34.0 °F 17% 29.71 in 10.0 mi WSW 4.6 mph - N/A   Clear
7:53 PM 79.0 °F 39.0 °F 24% 29.72 in 10.0 mi SW 4.6 mph - N/A   Clear
8:53 PM 75.0 °F 35.1 °F 23% 29.72 in 10.0 mi West 4.6 mph - N/A   Clear
9:53 PM 73.0 °F 35.1 °F 25% 29.72 in 10.0 mi Calm Calm - N/A   Clear
10:53 PM 70.0 °F 36.0 °F 29% 29.72 in 10.0 mi NNE 3.5 mph - N/A   Clear
11:53 PM 68.0 °F 37.0 °F 32% 29.72 in 10.0 mi Calm Calm - N/A   Clear